Regional Weather Roundup
Issued by NWS Memphis, TN

Home | Current Version | Previous Version | Text Only | Print | Product List | Glossary On
Versions: 1 2 3 4 5 6 7 8 9 10 11 12 13 14 15 16 17 18 19 20 21 22 23 24 25 26 27 28 29 30 31 32 33 34 35 36 37 38 39 40 41 42 43 44 45 46 47 48 49 50
000
ASUS44 KMEG 230610
RWRMEG
MEMPHIS CWA HOURLY WEATHER ROUNDUP
NATIONAL WEATHER SERVICE MEMPHIS TN
100 AM CDT WED JUL 23 2014

...WEST TENNESSEE...

CITY           SKY/WX    TMP DP  RH WIND       PRES   REMARKS
MEMPHIS INTL   PTCLDY    80  69  69 CALM      30.08S
6HR MIN TEMP:  78; 6HR MAX TEMP:  87;

NWS MEMPHIS      N/A     74 N/A N/A MISG        N/A
JACKSON        CLEAR     73  70  90 CALM      30.07F
6HR MIN TEMP:  72; 6HR MAX TEMP:  88;

LEXINGTON      CLEAR     73  72  94 CALM      30.08S
SAVANNAH       CLEAR     73  73 100 CALM      30.09S
DYERSBURG      CLEAR     73  64  73 CALM      30.08S
6HR MIN TEMP:  73; 6HR MAX TEMP:  88;

UNION CITY     CLEAR     72  72 100 S5        30.06S
PARIS          CLEAR     70  68  93 CALM      30.08F


...EASTERN ARKANSAS...

CITY           SKY/WX    TMP DP  RH WIND       PRES   REMARKS
JONESBORO      CLEAR     71  69  93 CALM      30.07S
6HR MIN TEMP:  70; 6HR MAX TEMP:  85;

WEST MEMPHIS   CLEAR     73  73 100 CALM      30.06S
6HR MIN TEMP:  73; 6HR MAX TEMP:  87;

BATESVILLE     CLEAR     73  70  88 CALM      30.09S
6HR MIN TEMP:  73; 6HR MAX TEMP:  86;

NEWPORT        CLEAR     74  72  93 S10       30.09R
6HR MIN TEMP:  74; 6HR MAX TEMP:  87;

WALNUT RIDGE   CLEAR     73  57  56 S6        30.07S
6HR MIN TEMP:  73; 6HR MAX TEMP:  88;

BLYTHEVILLE    CLEAR     75  71  87 S3        30.07S
6HR MIN TEMP:  75; 6HR MAX TEMP:  86;

SEARCY         FOG       70  70 100 CALM      30.10R VSB 1
6HR MIN TEMP:  71; 6HR MAX TEMP:  87;

STUTTGART      CLEAR     75  70  83 CALM      30.09S
6HR MIN TEMP:  75; 6HR MAX TEMP:  86;

PINE BLUFF     CLEAR     73  71  93 CALM      30.08R
6HR MIN TEMP:  71; 6HR MAX TEMP:  86;

MONTICELLO     CLEAR     73  70  90 CALM      30.07S
6HR MIN TEMP:  72; 6HR MAX TEMP:  87;



...NORTH MISSISSIPPI...

CITY           SKY/WX    TMP DP  RH WIND       PRES   REMARKS
TUPELO         PTCLDY    75  72  90 CALM      30.06F
6HR MIN TEMP:  75; 6HR MAX TEMP:  83;

OLIVE BRANCH   MOCLDY    75  75 100 CALM      30.08S
CLARKSDALE     PTCLDY    73  73 100 CALM      30.07F
CORINTH        PTCLDY    73  72  94 SE3       30.08S FOG
GRENADA        CLOUDY    70  70 100 CALM      30.05F
GREENWOOD      CLOUDY    73  72  96 CALM      30.04F FOG
6HR MIN TEMP:  73; 6HR MAX TEMP:  87; 6HR PCP:  0.26;

COLUMBUS       MOCLDY    75  75 100 CALM      30.07F
6HR MIN TEMP:  74; 6HR MAX TEMP:  79;

STARKVILLE     FAIR      72  70  94 CALM      30.06F
GOLDEN TRIANGL MOCLDY    75  72  88 CALM      30.07S
6HR MIN TEMP:  73; 6HR MAX TEMP:  84;



...SOUTHEAST MISSOURI...

CITY           SKY/WX    TMP DP  RH WIND       PRES   REMARKS
WEST PLAINS    CLEAR     76  68  76 S5        30.10F
6HR MIN TEMP:  74; 6HR MAX TEMP:  85;

POPLAR BLUFF   CLEAR     71  67  87 SW3       30.05S FOG
6HR MIN TEMP:  68; 6HR MAX TEMP:  84;

CAPE GIRARDEAU CLEAR     70  67  90 CALM      30.05R
6HR MIN TEMP:  69; 6HR MAX TEMP:  85;



...NORTHWEST ALABAMA...

CITY           SKY/WX    TMP DP  RH WIND       PRES   REMARKS
MUSCLE SHOALS  MOCLDY    75  72  90 CALM      30.10R
6HR MIN TEMP:  75; 6HR MAX TEMP:  85;



...MIDDLE TENNESSEE...

CITY           SKY/WX    TMP DP  RH WIND       PRES   REMARKS
NASHVILLE      PTCLDY    75  72  90 CALM      30.08S
6HR MIN TEMP:  75; 6HR MAX TEMP:  86;

CLARKSVILLE    CLEAR     78  73  84 SW5       30.06F
6HR MIN TEMP:  77; 6HR MAX TEMP:  90;

DICKSON        CLEAR     75  72  88 CALM      30.09S
COLUMBIA       PTCLDY    73  73 100 CALM      30.08S
LEWISBURG      CLOUDY    75  72  91 CALM      30.09S


...WESTERN KENTUCKY...

CITY           SKY/WX    TMP DP  RH WIND       PRES   REMARKS
PADUCAH        CLEAR     78  70  76 S5        30.03F
6HR MIN TEMP:  72; 6HR MAX TEMP:  88;

FORT CAMPBELL  CLEAR     76  76 100 SW5       30.06F
6HR MIN TEMP:  76; 6HR MAX TEMP:  89; 6HR PCP: TRACE;



...CENTRAL ARKANSAS...

CITY           SKY/WX    TMP DP  RH WIND       PRES   REMARKS
LITTLE ROCK    CLEAR     74  70  87 CALM      30.09R
6HR MIN TEMP:  74; 6HR MAX TEMP:  86;



SKY/WX REPORTED AS FAIR MEANS FEW OR NO CLOUDS BELOW
12 THOUSAND FEET.



USA.gov is the U.S. government's official web portal to all federal, state and local government web resources and services.